When you browse on this site, cookies collect data to enhance your experience and personalize the content and advertising you see.
Visit our Privacy Policy to learn more. By continuing to use the site, you agree to this use of cookies and data.
  • In Lithuania
  • List of Countries
  • For 7 days
  • Water Temperature
  • Weather Map
  • Weather Widgets
  • user-avatar
    Login

    Hourly Weather Wazyny

    Today, 21 August, Wednesday

    Time Temperature Precipitation Wind Pressure Humidity
    00:00 +19°C° 0 mm 3 mps 751 mmHg 60%
    01:00 +19°C° 0 mm 3 mps 751 mmHg 64%
    02:00 +18°C° 2.5 mm 3 mps 750 mmHg 73%
    03:00 +17°C° 2.5 mm 4 mps 750 mmHg 83%
    04:00 +15°C° 2.5 mm 5 mps 750 mmHg 92%
    05:00 +15°C° 1.1 mm 5 mps 751 mmHg 92%
    06:00 +14°C° 1.1 mm 5 mps 751 mmHg 91%
    07:00 +14°C° 1.1 mm 5 mps 751 mmHg 91%
    08:00 +14°C° 0.2 mm 4 mps 751 mmHg 90%
    09:00 +14°C° 0.2 mm 4 mps 752 mmHg 90%
    10:00 +15°C° 0.2 mm 4 mps 752 mmHg 89%
    11:00 +17°C° 0 mm 3 mps 753 mmHg 83%
    12:00 +18°C° 0 mm 3 mps 753 mmHg 77%
    13:00 +19°C° 0 mm 2 mps 754 mmHg 71%
    14:00 +19°C° 0.1 mm 3 mps 754 mmHg 70%
    15:00 +20°C° 0.1 mm 3 mps 754 mmHg 68%
    16:00 +20°C° 0.1 mm 3 mps 754 mmHg 67%
    17:00 +19°C° 0 mm 2 mps 754 mmHg 73%
    18:00 +18°C° 0 mm 1 mps 754 mmHg 78%
    19:00 +15°C° 0 mm 0 mps 754 mmHg 83%
    20:00 +15°C° 0 mm 0 mps 755 mmHg 85%
    21:00 +14°C° 0 mm 0 mps 755 mmHg 87%
    22:00 +13°C° 0 mm 0 mps 755 mmHg 89%
    23:00 +14°C° 0 mm 1 mps 755 mmHg 90%

    Tomorrow, 22 August, Thursday

    Time Temperature Precipitation Wind Pressure Humidity
    00:00 +14°C° 0 mm 1 mps 755 mmHg 91%
    01:00 +14°C° 0 mm 1 mps 756 mmHg 91%
    02:00 +13°C° 0 mm 1 mps 756 mmHg 91%
    03:00 +13°C° 0 mm 1 mps 755 mmHg 91%
    04:00 +13°C° 0 mm 1 mps 755 mmHg 91%
    05:00 +14°C° 0 mm 1 mps 756 mmHg 85%
    06:00 +15°C° 0 mm 1 mps 756 mmHg 80%
    07:00 +18°C° 0 mm 1 mps 756 mmHg 74%
    08:00 +19°C° 0 mm 1 mps 757 mmHg 68%
    09:00 +20°C° 0 mm 1 mps 757 mmHg 62%
    10:00 +22°C° 0 mm 1 mps 757 mmHg 56%
    11:00 +22°C° 0 mm 1 mps 757 mmHg 53%
    12:00 +23°C° 0 mm 1 mps 756 mmHg 51%
    13:00 +24°C° 0 mm 1 mps 756 mmHg 48%
    14:00 +24°C° 0 mm 1 mps 756 mmHg 48%
    15:00 +24°C° 0 mm 1 mps 756 mmHg 48%
    16:00 +24°C° 0 mm 1 mps 756 mmHg 47%
    17:00 +22°C° 0 mm 1 mps 755 mmHg 53%
    18:00 +20°C° 0 mm 1 mps 755 mmHg 59%
    19:00 +19°C° 0 mm 1 mps 755 mmHg 64%
    20:00 +18°C° 0 mm 1 mps 756 mmHg 67%
    21:00 +16°C° 0 mm 1 mps 756 mmHg 70%
    22:00 +15°C° 0 mm 1 mps 756 mmHg 73%
    23:00 +15°C° 0 mm 1 mps 756 mmHg 74%

    Day after tomorrow, 23 August, Friday

    Time Temperature Precipitation Wind Pressure Humidity
    00:00 +15°C° 0 mm 1 mps 756 mmHg 76%
    01:00 +14°C° 0 mm 1 mps 756 mmHg 77%
    02:00 +14°C° 0 mm 1 mps 756 mmHg 78%
    03:00 +14°C° 0 mm 1 mps 756 mmHg 79%
    04:00 +13°C° 0 mm 1 mps 756 mmHg 80%
    05:00 +15°C° 0 mm 1 mps 756 mmHg 76%
    06:00 +16°C° 0 mm 1 mps 756 mmHg 71%
    07:00 +19°C° 0 mm 1 mps 756 mmHg 67%
    08:00 +20°C° 0 mm 1 mps 756 mmHg 61%
    09:00 +21°C° 0 mm 2 mps 756 mmHg 56%
    10:00 +23°C° 0 mm 2 mps 756 mmHg 50%
    11:00 +24°C° 0 mm 2 mps 756 mmHg 47%
    12:00 +24°C° 0 mm 2 mps 756 mmHg 45%
    13:00 +25°C° 0 mm 2 mps 756 mmHg 43%
    14:00 +25°C° 0 mm 2 mps 755 mmHg 44%
    15:00 +25°C° 0 mm 2 mps 755 mmHg 44%
    16:00 +25°C° 0 mm 2 mps 755 mmHg 45%
    17:00 +23°C° 0 mm 2 mps 755 mmHg 52%
    18:00 +20°C° 0 mm 2 mps 754 mmHg 58%
    19:00 +18°C° 0 mm 2 mps 754 mmHg 65%
    20:00 +18°C° 0 mm 2 mps 754 mmHg 66%
    21:00 +17°C° 0 mm 2 mps 754 mmHg 68%
    22:00 +16°C° 0 mm 2 mps 755 mmHg 69%
    23:00 +16°C° 0 mm 2 mps 754 mmHg 70%

    24 August, Saturday

    Time Temperature Precipitation Wind Pressure Humidity
    00:00 +15°C° 0 mm 2 mps 754 mmHg 72%
    01:00 +15°C° 0 mm 2 mps 754 mmHg 73%
    02:00 +14°C° 0 mm 2 mps 754 mmHg 75%
    03:00 +14°C° 0 mm 2 mps 754 mmHg 77%
    04:00 +14°C° 0 mm 2 mps 754 mmHg 79%
    05:00 +15°C° 0 mm 2 mps 754 mmHg 76%
    06:00 +16°C° 0 mm 2 mps 754 mmHg 73%
    07:00 +18°C° 0 mm 2 mps 754 mmHg 70%
    08:00 +19°C° 0 mm 2 mps 754 mmHg 64%
    09:00 +21°C° 0 mm 3 mps 754 mmHg 57%
    10:00 +24°C° 0 mm 3 mps 754 mmHg 50%
    11:00 +24°C° 0 mm 3 mps 754 mmHg 47%
    12:00 +25°C° 0 mm 3 mps 753 mmHg 45%
    13:00 +26°C° 0 mm 3 mps 753 mmHg 42%
    14:00 +26°C° 0 mm 3 mps 753 mmHg 43%
    15:00 +25°C° 0 mm 3 mps 752 mmHg 43%
    16:00 +25°C° 0 mm 2 mps 752 mmHg 44%
    17:00 +23°C° 0 mm 2 mps 752 mmHg 50%
    18:00 +21°C° 0 mm 2 mps 752 mmHg 56%
    19:00 +19°C° 0 mm 2 mps 752 mmHg 62%
    20:00 +18°C° 0 mm 2 mps 752 mmHg 64%
    21:00 +17°C° 0 mm 2 mps 752 mmHg 67%
    22:00 +16°C° 0 mm 2 mps 752 mmHg 69%
    23:00 +16°C° 0 mm 2 mps 752 mmHg 70%

    25 August, Sunday

    Time Temperature Precipitation Wind Pressure Humidity
    00:00 +16°C° 0 mm 2 mps 752 mmHg 71%
    01:00 +15°C° 0 mm 2 mps 752 mmHg 73%
    02:00 +15°C° 0 mm 2 mps 752 mmHg 74%
    03:00 +14°C° 0 mm 2 mps 752 mmHg 75%
    04:00 +14°C° 0 mm 2 mps 752 mmHg 76%
    05:00 +15°C° 0 mm 2 mps 752 mmHg 73%
    06:00 +16°C° 0 mm 3 mps 752 mmHg 71%
    07:00 +17°C° 0 mm 3 mps 752 mmHg 69%
    08:00 +19°C° 0 mm 3 mps 753 mmHg 63%
    09:00 +21°C° 0 mm 4 mps 753 mmHg 57%
    10:00 +23°C° 0 mm 4 mps 753 mmHg 52%
    11:00 +23°C° 0 mm 4 mps 753 mmHg 50%
    12:00 +25°C° 0 mm 4 mps 752 mmHg 48%
    13:00 +26°C° 0 mm 4 mps 752 mmHg 47%
    14:00 +26°C° 0 mm 4 mps 752 mmHg 48%
    15:00 +26°C° 0 mm 4 mps 752 mmHg 49%
    16:00 +25°C° 0 mm 4 mps 751 mmHg 50%
    17:00 +23°C° 0 mm 4 mps 751 mmHg 57%
    18:00 +21°C° 0 mm 3 mps 751 mmHg 64%
    19:00 +19°C° 0 mm 3 mps 751 mmHg 70%
    20:00 +18°C° 0 mm 3 mps 751 mmHg 72%
    21:00 +17°C° 0 mm 3 mps 751 mmHg 74%
    22:00 +17°C° 0 mm 3 mps 752 mmHg 75%
    23:00 +16°C° 0 mm 3 mps 751 mmHg 77%

    26 August, Monday

    Time Temperature Precipitation Wind Pressure Humidity
    00:00 +16°C° 0 mm 3 mps 751 mmHg 78%
    01:00 +16°C° 0 mm 3 mps 751 mmHg 79%
    02:00 +14°C° 0 mm 3 mps 751 mmHg 80%
    03:00 +14°C° 0 mm 3 mps 751 mmHg 82%
    04:00 +14°C° 0 mm 3 mps 750 mmHg 83%
    05:00 +16°C° 0 mm 3 mps 750 mmHg 80%
    06:00 +17°C° 0 mm 4 mps 750 mmHg 77%
    07:00 +17°C° 0 mm 4 mps 750 mmHg 75%
    08:00 +19°C° 0 mm 4 mps 750 mmHg 71%
    09:00 +21°C° 0 mm 4 mps 750 mmHg 68%
    10:00 +23°C° 0 mm 4 mps 750 mmHg 64%
    11:00 +25°C° 0 mm 4 mps 749 mmHg 62%
    12:00 +26°C° 0 mm 4 mps 749 mmHg 59%
    13:00 +27°C° 0 mm 5 mps 749 mmHg 56%
    14:00 +28°C° 0 mm 4 mps 748 mmHg 56%
    15:00 +28°C° 0 mm 4 mps 748 mmHg 56%
    16:00 +28°C° 0 mm 4 mps 747 mmHg 56%
    17:00 +26°C° 0 mm 4 mps 747 mmHg 62%
    18:00 +25°C° 0 mm 3 mps 747 mmHg 69%
    19:00 +22°C° 0 mm 3 mps 746 mmHg 75%
    20:00 +21°C° 0 mm 3 mps 746 mmHg 77%
    21:00 +21°C° 0 mm 3 mps 746 mmHg 78%
    22:00 +20°C° 0 mm 3 mps 746 mmHg 80%
    23:00 +20°C° 0.3 mm 3 mps 746 mmHg 83%
    Show more